TimeMDT,TemperatureF,Dew PointF,Humidity,Sea Level PressureIn,VisibilityMPH,Wind Direction,Wind SpeedMPH,Gust SpeedMPH,PrecipitationIn,Events,Conditions,WindDirDegrees,DateUTC
12:53 AM,71.1,59.0,66,29.74,10.0,Calm,Calm,-,N/A,,Clear,0,2013-08-02 06:53:00
1:53 AM,68.0,57.9,70,29.73,10.0,Calm,Calm,-,N/A,,Clear,0,2013-08-02 07:53:00
2:53 AM,66.9,57.9,73,29.73,10.0,SE,9.2,-,N/A,,Clear,130,2013-08-02 08:53:00
3:53 AM,64.0,57.9,80,29.73,10.0,Calm,Calm,-,N/A,,Clear,0,2013-08-02 09:53:00
4:53 AM,66.0,57.9,75,29.72,10.0,Calm,Calm,-,N/A,,Clear,0,2013-08-02 10:53:00
5:53 AM,64.9,59.0,81,29.76,10.0,SSW,3.5,-,N/A,,Clear,210,2013-08-02 11:53:00
6:53 AM,64.9,59.0,81,29.75,8.0,Calm,Calm,-,N/A,,Clear,0,2013-08-02 12:53:00
7:53 AM,73.9,57.9,57,29.73,10.0,SW,8.1,-,N/A,,Clear,230,2013-08-02 13:53:00
8:53 AM,81.0,57.0,44,29.73,10.0,West,11.5,-,N/A,,Clear,280,2013-08-02 14:53:00
9:53 AM,84.9,57.9,40,29.74,10.0,North,12.7,-,N/A,,Clear,360,2013-08-02 15:53:00
10:53 AM,84.0,60.1,44,29.76,10.0,North,6.9,-,N/A,,Clear,360,2013-08-02 16:53:00
11:53 AM,89.1,57.0,34,29.75,10.0,North,10.4,-,N/A,,Clear,10,2013-08-02 17:53:00
12:53 PM,91.0,57.0,32,29.74,10.0,Variable,5.8,-,N/A,,Clear,0,2013-08-02 18:53:00
1:53 PM,95.0,55.0,26,29.73,10.0,North,9.2,16.1,N/A,,Clear,360,2013-08-02 19:53:00
2:53 PM,96.1,55.0,25,29.73,10.0,North,6.9,16.1,N/A,,Clear,10,2013-08-02 20:53:00
3:53 PM,97.0,57.9,27,29.72,10.0,NE,9.2,18.4,N/A,,Clear,50,2013-08-02 21:53:00
4:53 PM,97.0,52.0,22,29.72,10.0,NE,11.5,23.0,N/A,,Clear,50,2013-08-02 22:53:00
5:53 PM,96.1,52.0,22,29.72,10.0,ENE,13.8,-,N/A,,Clear,70,2013-08-02 23:53:00
6:53 PM,93.0,59.0,32,29.75,9.0,East,25.3,32.2,N/A,,Partly Cloudy,80,2013-08-03 00:53:00
7:53 PM,87.1,62.1,43,29.77,9.0,ENE,18.4,-,N/A,,Clear,70,2013-08-03 01:53:00
8:53 PM,84.0,64.0,51,29.79,10.0,East,11.5,-,N/A,,Clear,80,2013-08-03 02:53:00
9:53 PM,80.1,64.9,60,29.81,10.0,ENE,6.9,-,N/A,,Clear,60,2013-08-03 03:53:00
10:53 PM,75.9,63.0,64,29.83,10.0,NE,5.8,-,N/A,,Clear,50,2013-08-03 04:53:00
11:53 PM,73.9,62.1,66,29.84,10.0,NNE,4.6,-,N/A,,Clear,20,2013-08-03 05:53:00